Location: Artiguedieu
(43.5000°N, 0.5454°E)
Time: 20:22:41
(UTC+00:00)

Transit 2A - Pass Details

Date: 24 July 2021
Orbit: 594 x 964 km, 66.7° (Epoch: 28 September)

Event Time Altitude Azimuth Distance (km) Brightness Sun altitude
Rises 16:44:47 0° 328° (NNW) 3,207 9.7 27.7°
Reaches altitude 10° 16:47:05 10° 329° (NNW) 2,334 9.0 27.3°
Maximum altitude 16:52:29 87° 59° (ENE) 845 6.7 26.3°
Drops below altitude 10° 16:58:28 10° 149° (SSE) 2,564 8.5 25.2°
Sets 17:01:04 0° 150° (SSE) 3,544 9.1 24.7°
